sat.trackr.live / text

‹ back to catalog

SDA_1684

NORAD 65994 · 2025-230W

PAYLOAD ACTIVE UNKNOWN

§ Identity

Operator
Country
US
Launch date
2025-10-15
Launch site
AFWTR
Launch vehicle
Mass (kg)
RCS (m²)

External: N2YO · Heavens-Above · Gunter

§ Orbital elements

Epoch: 2026-05-25T05:32:12.093792Z

Period
104.39 min
Inclination
81.3017°
Eccentricity
0.0000926
Mean motion
13.79430359 rev/d
Perigee alt
965.2 km
Apogee alt
966.6 km
Semi-major
7,344.0 km
B*
4.9554e-5
RAAN
233.4630°
Arg perigee
125.6139°
Mean anomaly
234.5102°
Rev number
3,060

§ Raw data

SDA_16841 65994U 25230W   26145.23069553  .00000063  00000+0  49554-4 0  99952 65994  81.3017 233.4630 0000926 125.6139 234.5102 13.79430359 30600

JSON: /api/v1/satellites/65994 · /tle

For live sub-satellite position, see the globe view (requires WebGL).

§ Visibility from observer

Set your observer location to see the next 7 days of passes ≥ 10°. The values pass through the URL so the page stays shareable.

No JS? Fill the form by hand. The geolocation button needs JavaScript.

§ Radio — SatNOGS DB

ModeDescriptionDownlinkUplink
FM S-band telemetry 2.226 GHz

1 transmitter · refreshed weekly from db.satnogs.org